[[{"header":{"parameterUnit":"m.s-1","parameterCategory":1,"la1":30.2991,"la2":30.254,"lo1":-89.0895,"lo2":-89.0444,"dy":0.0017,"dx":0.0017,"nx":28,"ny":28,"refTime":"2023-09-19T09:00:00:Z","depth":0,"parameterNumber":2,"parameterNumberName":"U-component_of_WINDS"},"data":[0,0,0,0,0,0,0,0,0,0,0,0,0,0,0,0,0,0,0,0,0,0,0,0,0,0,0,0,0,0,0,0,0,0,0,0,0,0,0,0,0,0,0,0,0,0,0,0,0,0,0,0,0,0,0,0,0,0,-0.4766,-0.4769,0,-0.5014,-0.5017,-0.5019,-0.5197,-0.5198,-0.5199,-0.5201,-0.545,-0.5455,-0.546,0,0,0,0,0,0,0,0,0,0,0,0,0,-0.4444,-0.4449,-0.4766,-0.4769,-0.4772,-0.5013,-0.5017,-0.502,-0.5196,-0.5198,-0.52,-0.5202,-0.5448,-0.5455,-0.5461,0,0,0,0,0,0,0,0,0,0,0,0,0,-0.4627,-0.4451,-0.4766,-0.4889,-0.4903,-0.5013,-0.5017,-0.5021,-0.5196,-0.5198,-0.52,-0.5202,-0.5446,-0.5454,-0.5462,-0.5467,0,0,-0.5486,-0.5489,0,0,0,0,0,0,0,0,-0.4616,-0.4639,-0.4868,-0.4881,-0.4897,-0.5077,-0.4995,-0.517,-0.5195,-0.5085,-0.5201,-0.5203,-0.5324,-0.5342,-0.5383,-0.5479,-0.5489,-0.5487,-0.5491,-0.5495,-0.5497,0,0,0,0,0,0,0,-0.4604,-0.4629,-0.4864,-0.4871,-0.4889,-0.4932,-0.496,-0.5029,-0.5189,-0.5094,-0.5108,-0.5135,-0.5332,-0.5375,-0.5391,-0.5493,-0.5486,-0.5493,-0.5498,-0.5501,-0.5608,-0.5606,0,0,0,0,0,0,-0.4572,-0.4617,-0.4856,-0.4872,-0.4759,-0.4936,-0.4968,-0.5017,-0.5189,-0.5217,-0.5133,-0.5142,-0.5361,-0.5381,-0.54,-0.542,-0.5495,-0.5502,-0.5507,-0.561,-0.5608,-0.5606,0,0,0,0,0,0,-0.4564,-0.4592,-0.4846,-0.4748,-0.4784,-0.4939,-0.4993,-0.502,-0.5064,-0.5218,-0.5247,-0.5148,-0.5363,-0.5389,-0.545,-0.5431,-0.5506,-0.5513,-0.5612,-0.5609,-0.5607,-0.5457,0,0,0,0,0,0,-0.4554,-0.4588,-0.4591,-0.4747,-0.4789,-0.4892,-0.4991,-0.5024,-0.5078,-0.5092,-0.524,-0.5266,-0.5367,-0.5437,-0.5458,-0.5443,-0.5519,-0.5615,-0.5611,-0.5607,-0.5464,-0.5449,-0.5437,0,0,0,0,0,-0.4542,-0.4538,-0.4591,-0.4619,-0.4797,-0.4891,-0.4914,-0.5032,-0.5075,-0.5081,-0.518,-0.5261,-0.5429,-0.5442,-0.5467,-0.5454,-0.5616,-0.5612,-0.5608,-0.5471,-0.5452,-0.5437,0,0,0,0,0,0,-0.4374,-0.456,-0.4621,-0.4667,-0.4762,-0.492,-0.493,-0.5008,-0.5091,-0.5102,-0.5243,-0.5274,-0.5321,-0.5394,-0.5404,-0.547,-0.5533,-0.5533,-0.542,-0.5404,-0.5391,-0.5372,-0.5526,0,0,0,0,0,-0.4342,-0.4404,-0.4564,-0.4589,-0.4634,-0.4773,-0.4818,-0.4901,-0.5004,-0.5045,-0.5149,-0.5245,-0.532,-0.5366,-0.5443,-0.5476,-0.5511,-0.5479,-0.5465,-0.5453,-0.5452,-0.5477,-0.5465,-0.5591,-0.5591,-0.5591,0,0,-0.4277,-0.4387,-0.4417,-0.4558,-0.4641,-0.4702,-0.4806,-0.4865,-0.4911,-0.5054,-0.5119,-0.5198,-0.5315,-0.5362,-0.5388,-0.5424,-0.5425,-0.5448,-0.5437,-0.5443,-0.5471,-0.5459,-0.5449,-0.5588,-0.5589,-0.5589,0,0,-0.4191,-0.4279,-0.4312,-0.4393,-0.4519,-0.4613,-0.462,-0.4768,-0.4826,-0.4894,-0.5003,-0.506,-0.5185,-0.5265,-0.5322,-0.5268,-0.5347,-0.5289,-0.5216,-0.5239,-0.5229,-0.5221,-0.5203,-0.5195,-0.5287,-0.5287,-0.5286,0,-0.4094,-0.4191,-0.4318,-0.4372,-0.4431,-0.4565,-0.4599,-0.4672,-0.4815,-0.4852,-0.4891,-0.5054,-0.5141,-0.5211,-0.5198,-0.5239,-0.5252,-0.5273,-0.522,-0.5214,-0.5208,-0.5193,-0.5186,-0.5279,-0.528,-0.5281,-0.5281,0,-0.4066,-0.4132,-0.4143,-0.4281,-0.4341,-0.4384,-0.4518,-0.4563,-0.4641,-0.473,-0.4798,-0.4909,-0.5012,-0.5035,-0.5109,-0.5115,-0.5134,-0.5194,-0.5261,-0.5186,-0.5174,-0.5169,-0.5268,-0.5271,-0.5273,-0.5275,0,0,-0.388,-0.4089,-0.4091,-0.4157,-0.4306,-0.4359,-0.4408,-0.4511,-0.4549,-0.4643,-0.4689,-0.4793,-0.4851,-0.4915,-0.5001,-0.5021,-0.4973,-0.508,-0.5085,-0.5057,-0.4988,-0.4943,-0.4934,-0.5026,-0.5026,-0.5025,-0.4979,0,-0.3817,-0.3916,-0.4033,-0.4091,-0.4154,-0.4282,-0.4326,-0.4422,-0.4507,-0.4572,-0.4666,-0.4739,-0.4809,-0.4849,-0.4874,-0.4973,-0.4962,-0.4978,-0.5071,-0.5073,-0.5039,-0.4928,-0.488,-0.483,-0.4975,-0.4974,-0.4974,0,-0.3758,-0.3848,-0.3913,-0.406,-0.409,-0.4127,-0.4233,-0.4293,-0.4405,-0.4466,-0.4538,-0.4631,-0.469,-0.4749,-0.4833,-0.4842,-0.4887,-0.4942,-0.4943,-0.4957,-0.5019,-0.494,-0.4817,-0.481,-0.4968,-0.4968,-0.4968,0,-0.3617,-0.3755,-0.3813,-0.3865,-0.4036,-0.406,-0.4132,-0.4246,-0.4301,-0.4393,-0.443,-0.4526,-0.4578,-0.465,-0.4767,-0.4798,-0.4839,-0.4907,-0.4891,-0.4888,-0.4895,-0.4893,-0.4779,-0.492,-0.492,-0.492,-0.4921,0,-0.3537,-0.3571,-0.3753,-0.3788,-0.3832,-0.3965,-0.4004,-0.4088,-0.4189,-0.4243,-0.4359,-0.4407,-0.4557,-0.4623,-0.4713,-0.477,-0.4793,-0.4844,-0.4868,-0.4834,-0.4828,-0.4866,-0.4873,-0.4919,-0.4919,-0.4919,-0.492,0,-0.3388,-0.351,-0.3582,-0.374,-0.378,-0.3805,-0.394,-0.3979,-0.4071,-0.4138,-0.4161,-0.4306,-0.4389,-0.4512,-0.4632,-0.4693,-0.4737,-0.4774,-0.4699,-0.4714,-0.4692,-0.4693,-0.46,-0.4596,-0.4737,-0.4735,-0.4734,0,-0.3329,-0.3359,-0.3521,-0.3566,-0.3635,-0.3706,-0.3764,-0.3897,-0.3952,-0.4083,-0.4106,-0.4199,-0.4281,-0.4408,-0.4523,-0.4616,-0.4658,-0.4619,-0.4673,-0.4639,-0.466,-0.4657,-0.4662,-0.4607,-0.4604,-0.4603,-0.4601,0,-0.3212,-0.3272,-0.3351,-0.3452,-0.3518,-0.3604,-0.3695,-0.3725,-0.3877,-0.3933,-0.4022,-0.4085,-0.4209,-0.43,-0.4409,-0.4483,-0.4567,-0.4583,-0.4585,-0.4552,-0.4508,-0.4534,-0.4666,-0.4585,-0.4587,-0.4588,-0.4589,-0.4589,-0.3108,-0.3142,-0.3262,-0.3347,-0.343,-0.3513,-0.3558,-0.3657,-0.3733,-0.3846,-0.3919,-0.4003,-0.4117,-0.4272,-0.4342,-0.441,-0.4445,-0.4447,-0.4448,-0.4447,-0.4436,-0.4496,-0.443,-0.443,-0.4431,-0.4431,-0.4432,0,-0.2999,-0.3083,-0.316,-0.3285,-0.3352,-0.3427,-0.3532,-0.3583,-0.3657,-0.3756,-0.3834,-0.3936,-0.4025,-0.4148,-0.4246,-0.4277,-0.4318,-0.4298,-0.4298,-0.4315,-0.4397,-0.4387,-0.4264,-0.4264,-0.4264,-0.4264,-0.4264,-0.4264,-0.2951,-0.3013,-0.3087,-0.3192,-0.3276,-0.3361,-0.3415,-0.3492,-0.3572,-0.3681,-0.3757,-0.3837,-0.3946,-0.4053,-0.4139,-0.4173,-0.4204,-0.4172,-0.4218,-0.4293,-0.4308,-0.4323,-0.4314,-0.4178,-0.4177,-0.413,-0.413,-0.4129]},{"header":{"parameterUnit":"m.s-1","parameterCategory":1,"la1":30.2991,"la2":30.254,"lo1":-89.0895,"lo2":-89.0444,"dy":0.0017,"dx":0.0017,"nx":28,"ny":28,"refTime":"2023-09-19T09:00:00:Z","depth":0,"parameterNumber":3,"parameterNumberName":"V-component_of_WINDS"},"data":[0,0,0,0,0,0,0,0,0,0,0,0,0,0,0,0,0,0,0,0,0,0,0,0,0,0,0,0,0,0,0,0,0,0,0,0,0,0,0,0,0,0,0,0,0,0,0,0,0,0,0,0,0,0,0,0,0,0,1.2544,1.2543,0,1.2407,1.2405,1.2404,1.2253,1.225,1.2248,1.2246,1.2102,1.21,1.2099,0,0,0,0,0,0,0,0,0,0,0,0,0,1.2672,1.2671,1.2544,1.2543,1.2541,1.2407,1.2405,1.2403,1.2253,1.225,1.2248,1.2245,1.2103,1.2101,1.2099,0,0,0,0,0,0,0,0,0,0,0,0,0,1.2584,1.267,1.2545,1.245,1.244,1.2408,1.2405,1.2403,1.2254,1.225,1.2247,1.2244,1.2104,1.2101,1.2098,1.2147,0,0,1.209,1.2089,0,0,0,0,0,0,0,0,1.2589,1.258,1.2465,1.2456,1.2445,1.2344,1.2397,1.2317,1.2254,1.2324,1.2246,1.2242,1.2185,1.2175,1.2157,1.214,1.2134,1.209,1.2088,1.2087,1.2086,0,0,0,0,0,0,0,1.2596,1.2585,1.249,1.2464,1.2452,1.2413,1.2397,1.2382,1.2275,1.2318,1.2307,1.2293,1.2179,1.216,1.2152,1.2132,1.209,1.2087,1.2086,1.2085,1.2147,1.215,0,0,0,0,0,0,1.2617,1.2591,1.2494,1.2486,1.2511,1.2413,1.2395,1.2379,1.2274,1.2255,1.2296,1.2286,1.2166,1.2156,1.2147,1.2195,1.2087,1.2084,1.2083,1.2143,1.2147,1.2151,0,0,0,0,0,0,1.262,1.2609,1.25,1.2535,1.2518,1.2415,1.2398,1.2378,1.2359,1.2257,1.2237,1.2296,1.2163,1.215,1.2148,1.2188,1.2083,1.2081,1.2139,1.2145,1.2149,1.2294,0,0,0,0,0,0,1.2624,1.2612,1.263,1.2537,1.2517,1.2505,1.2401,1.2378,1.2355,1.2342,1.2252,1.2234,1.2159,1.2153,1.2145,1.2182,1.2079,1.2135,1.2142,1.2147,1.2285,1.2303,1.2319,0,0,0,0,0,1.2629,1.2676,1.2632,1.2621,1.2538,1.2508,1.2496,1.241,1.2359,1.2376,1.2311,1.2237,1.2186,1.2154,1.2144,1.2181,1.2132,1.214,1.2147,1.2278,1.23,1.2318,0,0,0,0,0,0,1.2775,1.2662,1.2612,1.263,1.258,1.2482,1.2501,1.2436,1.2398,1.2387,1.228,1.2261,1.2271,1.2226,1.2193,1.2222,1.2148,1.2154,1.2251,1.2271,1.2288,1.2297,1.2076,0,0,0,0,0,1.281,1.2796,1.2697,1.2722,1.27,1.2605,1.2589,1.2527,1.247,1.2448,1.2382,1.2329,1.23,1.2283,1.2251,1.2278,1.2256,1.2299,1.2316,1.233,1.2336,1.2345,1.2362,1.2175,1.2175,1.2175,0,0,1.2881,1.2817,1.2814,1.275,1.2704,1.269,1.2588,1.2578,1.2567,1.2445,1.2439,1.2389,1.2323,1.2335,1.2337,1.2297,1.2383,1.234,1.2352,1.2349,1.2354,1.2372,1.2388,1.218,1.2179,1.2178,0,0,1.3002,1.2953,1.2968,1.2924,1.2856,1.2793,1.2797,1.2709,1.2672,1.2664,1.2572,1.2556,1.251,1.2466,1.2437,1.2542,1.2473,1.2535,1.2622,1.2632,1.2647,1.266,1.2695,1.271,1.2541,1.2542,1.2542,0,1.3098,1.3075,1.2984,1.2979,1.2953,1.2844,1.2858,1.2819,1.2744,1.2728,1.2685,1.2624,1.2571,1.2571,1.2597,1.2578,1.2577,1.2544,1.2653,1.2664,1.2674,1.2707,1.2721,1.255,1.2549,1.2548,1.2547,0,1.3195,1.3181,1.3201,1.3132,1.3108,1.3113,1.3021,1.3008,1.2948,1.2889,1.2882,1.2815,1.2767,1.2763,1.2704,1.2754,1.2731,1.2673,1.2596,1.2702,1.2731,1.2743,1.2561,1.2558,1.2556,1.2554,0,0,1.3403,1.3284,1.3293,1.326,1.3177,1.3163,1.3163,1.3117,1.3107,1.3059,1.3054,1.3018,1.2962,1.293,1.2865,1.2875,1.296,1.2814,1.2811,1.2842,1.3009,1.3052,1.3069,1.2915,1.2917,1.2918,1.3014,0,1.3508,1.3501,1.3419,1.3435,1.3419,1.3316,1.3315,1.3264,1.3209,1.3187,1.3125,1.31,1.303,1.301,1.3015,1.2949,1.2992,1.2941,1.2907,1.2907,1.2925,1.3084,1.313,1.3223,1.3025,1.3026,1.3028,0,1.3628,1.3589,1.3604,1.352,1.351,1.3511,1.3462,1.3443,1.3382,1.3341,1.3306,1.3233,1.3225,1.3155,1.3141,1.3109,1.309,1.3056,1.3057,1.3049,1.2973,1.3078,1.3251,1.3265,1.3045,1.3044,1.3042,0,1.3776,1.3726,1.3728,1.3703,1.3606,1.3609,1.3569,1.3504,1.3482,1.3439,1.3423,1.338,1.3356,1.3323,1.324,1.3197,1.3235,1.3159,1.3199,1.3202,1.321,1.3211,1.3381,1.3203,1.3202,1.3202,1.3202,0,1.39,1.3913,1.3793,1.3794,1.3805,1.3711,1.3723,1.3673,1.3617,1.3605,1.3513,1.3504,1.3396,1.3374,1.3309,1.3306,1.3297,1.3262,1.3244,1.3269,1.3273,1.3254,1.3244,1.3206,1.3205,1.3204,1.3203,0,1.4066,1.3987,1.3982,1.3891,1.3868,1.388,1.3801,1.3797,1.3737,1.3724,1.3715,1.362,1.359,1.3504,1.3451,1.3408,1.3423,1.3391,1.3444,1.3432,1.3477,1.3473,1.3639,1.3655,1.3469,1.3471,1.3473,0,1.4149,1.4157,1.4067,1.4053,1.4017,1.3996,1.3973,1.3881,1.386,1.3791,1.3796,1.3758,1.3723,1.3678,1.3604,1.3563,1.3528,1.3589,1.3521,1.3545,1.3526,1.3526,1.3525,1.3603,1.3606,1.3608,1.3609,0,1.4305,1.4266,1.4237,1.4194,1.417,1.4132,1.4088,1.4082,1.3978,1.3959,1.3927,1.3901,1.3847,1.381,1.3757,1.3713,1.3644,1.3632,1.3638,1.3663,1.3692,1.3675,1.3482,1.3628,1.3626,1.3624,1.3623,1.3623,1.443,1.4431,1.4369,1.4339,1.4297,1.4259,1.4251,1.419,1.4163,1.4113,1.406,1.4034,1.3971,1.3894,1.3855,1.3832,1.3795,1.3806,1.3808,1.3811,1.3822,1.3699,1.3822,1.3822,1.3821,1.3821,1.382,0,1.4579,1.4534,1.4508,1.4451,1.4427,1.4366,1.4315,1.4299,1.4277,1.4226,1.4194,1.4157,1.4121,1.4044,1.4001,1.3997,1.3964,1.3988,1.3987,1.3977,1.3858,1.3856,1.4016,1.4016,1.4016,1.4016,1.4016,1.4016,1.4654,1.4652,1.4606,1.4582,1.4536,1.4511,1.4487,1.445,1.4409,1.4372,1.4342,1.4293,1.4231,1.4183,1.4146,1.4124,1.4112,1.4147,1.4115,1.4004,1.3986,1.3968,1.3965,1.4145,1.4145,1.4234,1.4235,1.4236]}]]